SCP
0 0 0 0 0 0 0 0 0 0 0 0 0 0 0 0 0 0 0 0 0 0 0 0 0 0 0 0 0 0 0 0 0 0 0 0 0 0 0 0 0 0 0 0 0 0 0 0 0 0 0 0 0 0
0 0 0 0 0 0 0 0 0 0 0 0 0 0 0 0 0 0 0 0 0 0 0 0 0 0 0 0 0 0 0 0 0 0 0 0 0 0 0 0 0 0 0 0 0 0 0 0 0 0 0 0 0 0
0 0 0 0 0 0 0 0 0 0 0 0 0 0 0 0 0 0 0 0 0 0 0 0 0 0 0 0 0 0 0 0 0 0 0 0 0 0 0 0 0 0 0 0 0 0 0 0 0 0 0 0 0 0
0 0 0 0 0 0 0 0 0 0 0 0 0 0 0 0 0 0 0 0 0 0 0 0 0 0 0 0 0 0 0 0 0 0 0 0 0 0 0 0 0 0 0 0 0 0 0 0 0 0 0 0 0 0
0 0 0 0 0 0 0 0 0 0 0 0 0 0 0 0 0 0 0 0 0 0 0 0 0 0 0 0 0 0 0 0 0 0 0 0 0 0 0 0 0 0 0 0 0 0 0 0 0 0 0 0 0 0
0 0 0 0 0 0 0 0 0 0 0 0 0 0 0 0 0 0 0 0 0 0 0 0 0 0 0 0 0 0 0 0 0 0 0 0 0 0 0 0 0 0 0 0 0 0 0 0 0 0 0 0 0 0
0 0 0 0 0 0 0 0 0 0 0 0 0 0 0 0 0 0 0 0 0 0 0 0 0 0 0 0 0 0 0 0 0 0 0 0 0 0 0 0 0 0 0 0 0 0 0 0 0 0 0 0 0 0
0 0 0 0 0 0 0 0 0 0 0 0 0 0 0 0 0 0 0 0 0 0 0 0 0 0 0 0 0 0 0 0 0 0 0 0 0 0 0 0 0 0 0 0 0 0 0 0 0 0 0 0 0 0
0 0 0 0 0 0 0 0 0 0 0 0 0 0 0 0 0 0 0 0 0 0 0 0 0 0 0 0 0 0 0 0 0 0 0 0 0 0 0 0 0 0 0 0 0 0 0 0 0 0 0 0 0 0
0 0 0 0 0 0 0 0 0 0 0 0 0 0 0 0 0 0 0 0 0 0 0 0 0 0 0 0 0 0 0 0 0 0 0 0 0 0 0 0 0 0 0 0 0 0 0 0 0 0 0 0 0 0
0 0 0 0 0 0 0 0 0 0 0 0 0 0 0 0 0 0 0 0 0 0 0 0 0 0 0 0 0 0 0 0 0 0 0 0 0 0 0 0 0 0 0 0 0 0 0 0 0 0 0 0 0 0
0 0 0 0 0 0 0 0 0 0 0 0 0 0 0 0 0 0 0 0 0 0 0 0 0 0 0 0 0 0 0 0 0 0 0 0 0 0 0 0 0 0 0 0 0 0 0 0 0 0 0 0 0 0
0 0 0 0 0 0 0 0 0 0 0 0 0 0 0 0 0 0 0 0 0 0 0 0 0 0 0 0 0 0 0 0 0 0 0 0 0 0 0 0 0 0 0 0 0 0 0 0 0 0 0 0 0 0
0 0 0 0 0 0 0 0 0 0 0 0 0 0 0 0 0 0 0 0 0 0 0 0 0 0 0 0 0 0 0 0 0 0 0 0 0 0 0 0 0 0 0 0 0 0 0 0 0 0 0 0 0 0
0 0 0 0 0 0 0 0 0 0 0 0 0 0 0 0 0 0 0 0 0 0 0 0 0 0 0 0 0 0 0 0 0 0 0 0 0 0 0 0 0 0 0 0 0 0 0 0 0 0 0 0 0 0
0 0 0 0 0 0 0 0 0 0 0 0 0 0 0 0 0 0 0 0 0 0 0 0 0 0 0 0 0 0 0 0 0 0 0 0 0 0 0 0 0 0 0 0 0 0 0 0 0 0 0 0 0 0
0 0 0 0 0 0 0 0 0 0 0 0 0 0 0 0 0 0 0 0 0 0 0 0 0 0 0 0 0 0 0 0 0 0 0 0 0 0 0 0 0 0 0 0 0 0 0 0 0 0 0 0 0 0
0 0 0 0 0 0 0 0 0 0 0 0 0 0 0 0 0 0 0 0 0 0 0 0 0 0 0 0 0 0 0 0 0 0 0 0 0 0 0 0 0 0 0 0 0 0 0 0 0 0 0 0 0 0
0 0 0 0 0 0 0 0 0 0 0 0 0 0 0 0 0 0 0 0 0 0 0 0 0 0 0 0 0 0 0 0 0 0 0 0 0 0 0 0 0 0 0 0 0 0 0 0 0 0 0 0 0 0
0 0 0 0 0 0 0 0 0 0 0 0 0 0 0 0 0 0 0 0 0 0 0 0 0 0 0 0 0 0 0 0 0 0 0 0 0 0 0 0 0 0 0 0 0 0 0 0 0 0 0 0 0 0
0 0 0 0 0 0 0 0 0 0 0 0 0 0 0 0 0 0 0 0 0 0 0 0 0 0 0 0 0 0 0 0 0 0 0 0 0 0 0 0 0 0 0 0 0 0 0 0 0 0 0 0 0 0
0 0 0 0 0 0 0 0 0 0 0 0 0 0 0 0 0 0 0 0 0 0 0 0 0 0 0 0 0 0 0 0 0 0 0 0 0 0 0 0 0 0 0 0 0 0 0 0 0 0 0 0 0 0
0 0 0 0 0 0 0 0 0 0 0 0 0 0 0 0 0 0 0 0 0 0 0 0 0 0 0 0 0 0 0 0 0 0 0 0 0 0 0 0 0 0 0 0 0 0 0 0 0 0 0 0 0 0
0 0 0 0 0 0 0 0 0 0 0 0 0 0 0 0 0 0 0 0 0 0 0 0 0 0 0 0 0 0 0 0 0 0 0 0 0 0 0 0 0 0 0 0 0 0 0 0 0 0 0 0 0 0
0 0 0 0 0 0 0 0 0 0 0 0 0 0 0 0 0 0 0 0 0 0 0 0 0 0 0 0 0 0 0 0 0 0 0 0 0 0 0 0 0 0 0 0 0 0 0 0 0 0 0 0 0 0
0 0 0 0 0 0 0 0 0 0 0 0 0 0 0 0 0 0 0 0 0 0 0 0 0 0 0 0 0 0 0 0 0 0 0 0 0 0 0 0 0 0 0 0 0 0 0 0 0 0 0 0 0 0
0 0 0 0 0 0 0 0 0 0 0 0 0 0 0 0 0 0 0 0 0 0 0 0 0 0 0 0 0 0 0 0 0 0 0 0 0 0 0 0 0 0 0 0 0 0 0 0 0 0 0 0 0 0
0 0 0 0 0 0 0 0 0 0 0 0 0 0 0 0 0 0 0 0 -0 -0 -0 0 0 0 0 0 0 0 0 0 0 0 0 0 0 0 0 0 0 0 0 0 0 0 0 0 0 0 0 0 0 0
0 0 0 0 0 0 0 0 0 0 0 0 0 0 0 0 0 0 0 -0 -0 -0 -0 -0 0 0 0 0 0 0 0 0 0 0 0 0 0 0 0 0 0 0 0 0 0 0 0 0 0 0 0 0 0 0
0 0 0 0 0 0 0 0 0 0 0 0 0 0 0 0 0 0 0 0 0 0 0 0 0 0 0 0 0 0 0 0 0 0 0 0 0 0 0 0 0 0 0 0 0 0 0 0 0 0 0 0 0 0
0 0 0 0 0 0 0 0 0 0 0 0 0 0 0 0 0 -0 0 0 -0 -0 -0 0 0 0 0 0 0 0 0 0 0 0 0 0 0 0 0 0 0 0 0 0 0 0 0 0 0 0 0 0 0 0
0 0 0 -0 -0 0 0 0 0 0 0 0 0 0 0 0 -0 0 0 0 0 0 0 -0 -0 -0 0 0 0 0 0 0 0 0 0 0 0 0 0 0 0 0 0 0 0 0 0 0 0 0 0 0 0 0
0 0 0 0 0 0 0 0 0 0 0 0 0 -0 0 0 0 0 0 -0 -0 -0 -0 -0 0 0 0 0 0 0 0 0 0 0 0 0 0 0 0 0 0 0 0 0 0 0 0 0 0 0 0 0 0 0
Wind_Speed_500mb
102 96 95 92 88 86 82 79 77 76 72 69 66 62 59 58 55 55 55 50 51 26 46 48 40 35 23 18 9 18 10 7 6 4 7 6 7 9 3 9 13 15 15 10 5 8 21 29 16 13 6 9 11 10
104 102 100 101 99 94 92 90 86 84 81 79 76 74 71 68 65 62 67 67 63 50 27 30 48 59 58 49 28 33 12 17 27 6 3 6 7 4 6 7 5 8 16 12 25 18 2 36 25 24 26 21 14 13
106 107 106 103 101 100 96 97 95 95 91 87 88 84 81 79 76 78 79 81 68 53 53 68 69 68 65 64 58 29 26 33 23 22 21 5 9 8 9 14 3 11 23 9 4 38 54 61 67 62 50 32 16 13
113 108 105 110 109 106 103 101 98 99 97 98 97 94 90 89 87 89 98 97 83 21 15 30 51 55 66 71 74 69 59 27 22 22 13 6 6 30 6 2 7 11 23 10 19 57 62 63 43 39 31 27 20 17
112 113 115 109 111 107 106 103 99 97 101 102 103 100 97 97 95 98 102 104 99 73 10 12 31 49 54 55 60 65 62 48 28 13 12 7 8 3 3 0 15 31 19 13 22 32 33 21 15 17 26 27 22 16
116 116 112 115 113 121 111 110 105 104 104 104 107 102 105 100 104 98 63 94 96 95 23 4 18 28 49 48 48 50 55 45 33 17 10 14 16 14 6 8 39 59 67 80 54 47 36 24 13 16 24 28 23 14
93 102 109 116 115 119 120 115 115 104 108 106 105 97 105 111 112 85 34 28 51 92 18 8 9 12 25 31 27 28 35 25 28 13 16 12 15 23 5 11 88 38 43 40 47 44 30 26 17 23 24 27 21 13
78 85 89 94 99 104 111 116 118 114 111 105 106 103 110 107 96 86 67 46 48 66 20 6 5 12 32 18 16 25 21 25 22 12 9 12 11 18 12 73 70 56 56 45 36 43 45 28 25 34 31 27 20 10
42 44 52 56 64 74 81 89 94 99 104 96 81 80 65 60 39 46 50 39 70 29 19 16 13 9 35 13 14 18 19 7 13 11 11 18 8 16 31 46 56 60 36 22 22 20 19 23 38 41 37 29 18 9
37 43 46 42 42 44 56 73 80 77 66 52 55 26 20 18 25 45 33 40 31 21 15 10 16 6 26 16 14 19 14 5 7 9 13 8 10 43 93 94 86 52 43 37 32 29 35 43 49 46 36 26 17 8
38 41 39 37 35 37 37 29 34 53 57 71 26 13 39 66 24 10 16 14 18 9 19 18 22 13 26 8 7 16 7 7 6 6 8 6 8 20 50 56 60 64 58 50 42 24 27 30 53 50 41 26 16 10
28 26 25 30 41 40 32 22 34 47 44 42 33 61 59 13 6 8 9 8 11 11 20 21 17 13 21 14 10 14 6 2 10 13 1 9 13 39 24 17 16 26 36 47 48 29 37 43 46 41 34 24 16 11
16 17 23 26 24 24 31 56 47 50 48 37 13 20 17 12 8 17 20 9 8 26 37 29 11 21 15 12 10 6 9 10 18 2 9 12 19 13 17 22 21 23 31 43 42 40 44 52 47 36 30 22 17 14
16 17 15 16 24 25 30 81 74 66 44 17 21 14 14 11 13 12 9 11 15 23 58 50 20 14 12 9 9 10 4 7 4 6 16 8 27 24 35 23 29 37 44 49 50 53 55 52 44 35 26 21 16 17
20 21 22 16 20 34 29 29 64 67 16 12 14 12 18 15 9 15 22 25 21 58 71 31 16 12 5 7 4 9 6 12 14 12 8 16 12 23 36 38 41 48 55 57 58 59 56 47 39 33 27 23 19 20
26 28 27 15 18 33 49 31 74 62 18 11 16 9 5 14 8 21 33 25 48 64 43 13 7 9 9 8 10 21 15 19 10 8 34 24 19 23 33 39 43 51 58 62 61 58 52 45 37 30 25 23 20 19
28 27 15 20 17 23 25 29 42 21 17 14 14 40 38 9 20 31 39 46 68 58 8 10 16 14 8 7 10 11 13 8 22 33 27 23 24 22 30 40 48 57 64 65 63 58 50 44 38 32 29 24 23 22
25 14 13 14 23 28 19 15 16 17 16 25 9 20 45 19 25 42 49 67 53 27 27 12 19 9 13 14 9 9 42 37 27 19 23 23 18 22 28 40 51 60 67 67 63 58 52 46 40 33 30 26 26 24
19 14 10 4 5 13 8 11 17 9 21 11 42 28 36 38 46 39 52 78 61 56 30 26 9 10 11 11 16 21 30 27 30 30 28 27 29 24 29 43 51 64 71 71 67 60 50 40 34 34 32 28 28 27
27 17 9 8 4 5 5 8 8 9 6 8 10 16 23 16 31 38 52 79 64 26 10 9 14 19 21 36 34 27 13 14 24 25 33 34 33 33 39 48 58 68 74 70 64 55 50 46 45 42 37 31 31 30
32 29 16 11 4 2 5 9 8 8 15 12 17 11 12 14 18 36 42 64 33 14 8 51 59 52 43 39 38 36 31 31 39 45 48 44 53 49 45 55 65 74 80 75 66 58 56 51 43 42 40 34 33 33
41 34 25 14 8 6 9 10 10 20 12 16 15 7 10 7 7 13 28 28 16 33 37 62 60 54 68 74 72 69 59 50 53 59 62 57 54 56 54 61 71 83 81 73 58 59 54 46 45 43 42 36 37 37
41 42 28 19 13 18 9 12 6 4 0 8 15 11 5 6 8 7 11 14 21 55 76 84 79 70 76 80 71 65 59 61 68 69 64 63 54 49 50 62 75 86 82 69 56 54 47 41 46 46 44 40 41 41
44 25 18 28 27 13 15 13 13 9 3 3 4 8 10 10 5 6 6 10 27 43 66 88 91 92 92 88 75 75 72 73 76 69 68 65 64 58 57 56 74 83 75 57 55 55 46 46 48 48 46 41 44 43
15 20 18 11 19 9 7 4 3 6 10 9 7 10 7 5 3 6 8 14 43 53 65 81 86 85 93 94 87 91 90 82 78 79 70 69 66 62 59 61 76 79 67 55 55 45 44 49 50 49 46 44 45 44
20 28 24 22 12 11 11 11 12 16 10 9 14 7 1 1 8 13 8 43 63 71 75 68 76 82 95 103 90 79 85 79 76 74 78 80 81 80 70 76 85 82 67 56 49 44 46 48 48 48 46 45 46 45
16 10 7 17 19 18 7 4 8 7 12 15 8 9 9 10 11 10 63 68 65 64 57 55 57 64 81 76 70 68 70 58 53 65 74 73 76 72 72 83 93 74 65 58 44 35 40 41 44 45 43 43 44 44
10 24 14 27 16 21 13 6 12 16 10 13 11 10 16 17 18 35 43 45 53 55 53 56 58 55 63 67 64 48 41 40 46 55 55 51 63 61 60 68 60 60 49 36 30 34 36 37 37 38 38 39 41 42
10 23 40 9 7 10 18 18 13 23 21 21 8 12 12 29 40 50 57 58 60 61 60 54 43 42 45 41 39 42 47 52 59 62 61 66 65 64 63 59 56 49 42 35 31 32 34 35 36 36 36 38 40 39
14 41 15 10 15 15 24 28 16 35 41 39 22 19 25 44 54 53 59 58 56 57 53 48 37 32 37 39 40 43 47 53 55 62 74 77 80 74 70 63 55 48 43 33 29 31 35 37 35 34 35 35 34 32
32 26 10 12 9 11 18 29 33 27 23 22 33 33 37 29 48 58 55 55 53 50 43 36 29 29 32 34 38 39 40 47 48 49 52 58 69 67 63 57 47 39 31 29 29 29 30 31 31 31 30 29 29 28
22 18 11 8 8 10 13 16 11 15 13 14 14 19 12 11 14 17 26 28 28 31 29 23 21 24 27 26 27 31 30 39 42 40 37 43 55 52 46 38 30 25 30 31 29 29 28 27 27 26 26 25 25 25
11 10 7 8 6 9 17 14 8 6 10 9 13 17 21 13 11 12 14 17 18 19 18 17 16 17 18 18 21 24 32 42 42 38 37 41 37 34 30 27 30 32 29 28 26 25 24 23 22 22 22 21 22 23
Wind_Direction_500mb
240 243 244 242 245 246 246 247 249 250 251 250 249 249 250 252 249 253 254 250 241 230 249 248 238 227 203 193 164 167 127 201 122 153 175 206 209 216 193 198 182 180 163 198 128 218 274 181 137 191 201 211 211 204
242 242 243 243 244 247 247 248 248 248 248 249 250 250 249 250 249 249 248 252 246 229 258 254 245 244 242 249 241 192 218 183 188 118 213 114 218 159 197 250 305 263 198 181 189 221 172 202 233 248 271 262 245 227
240 241 243 244 244 245 250 248 251 250 249 247 249 249 248 250 248 246 247 248 235 233 249 252 253 250 241 239 239 224 233 225 210 207 171 171 223 131 191 225 212 247 202 232 121 252 248 266 265 263 267 263 246 223
242 242 244 244 242 245 248 251 251 248 249 249 245 246 249 248 248 247 244 243 241 224 224 236 243 239 243 236 236 231 238 225 228 215 209 185 197 198 227 177 222 210 155 193 259 280 274 266 266 266 255 244 218 187
242 240 244 245 245 243 245 250 250 247 248 254 246 248 247 248 248 248 247 242 242 232 228 215 229 234 234 232 232 231 231 236 227 198 199 229 235 235 156 135 246 201 210 195 250 262 243 259 255 252 232 215 204 191
241 242 241 243 244 243 245 247 249 249 252 247 259 248 254 245 243 243 234 241 235 237 245 235 231 213 218 221 217 220 225 220 215 208 210 234 210 189 229 243 252 247 242 235 247 261 265 271 256 219 203 188 180 168
245 249 251 246 245 244 243 246 248 249 250 257 256 256 249 247 241 220 225 229 220 218 217 251 216 171 188 196 192 197 206 204 209 221 219 233 196 198 229 252 262 257 253 251 256 263 257 250 245 195 190 173 160 143
246 246 248 250 252 255 254 251 249 250 252 254 252 253 253 235 221 216 223 217 195 180 194 247 131 170 175 170 160 181 183 188 204 219 219 215 192 209 242 242 263 266 263 261 260 252 258 267 204 178 175 169 154 138
236 242 245 249 254 258 263 260 258 255 250 248 247 245 203 189 203 204 207 193 176 181 193 196 172 199 167 153 148 156 178 169 192 224 226 181 195 221 230 254 251 253 246 226 216 222 216 203 183 174 169 163 158 151
229 231 233 233 235 242 252 260 263 250 229 203 189 160 162 182 172 171 145 167 188 213 231 221 143 150 159 163 170 143 179 200 203 227 173 222 258 262 255 253 258 250 237 229 182 171 184 181 180 174 166 159 159 168
232 236 239 239 236 232 237 234 228 227 201 171 157 115 141 145 140 140 138 171 191 242 205 177 174 140 181 150 163 201 168 165 212 215 187 249 265 243 256 253 251 243 242 244 232 222 208 209 180 168 165 167 168 161
228 223 221 229 234 236 236 241 230 198 182 181 161 128 140 177 141 134 188 170 195 216 176 154 161 142 147 154 120 175 156 122 247 133 206 263 244 248 237 226 224 224 215 205 206 205 181 176 172 164 162 166 166 157
243 234 227 226 218 213 197 194 207 209 187 156 120 142 156 161 188 191 191 202 193 172 175 164 136 148 140 155 114 153 158 210 129 128 238 243 260 243 217 220 215 191 180 184 181 173 167 163 164 167 164 165 158 161
244 264 255 222 215 195 165 190 200 196 179 180 156 158 201 182 229 197 187 173 177 167 150 144 120 136 139 145 149 158 120 133 200 241 236 243 257 251 222 209 196 183 178 177 174 167 168 168 165 165 165 162 161 166
211 210 211 239 205 192 164 199 202 188 183 176 176 205 205 208 200 185 167 141 139 153 146 128 102 125 145 126 173 108 137 234 215 231 230 263 250 217 201 201 192 185 177 178 174 170 170 171 172 172 169 168 173 170
232 251 244 201 202 200 203 194 195 207 217 221 221 201 164 167 177 175 173 150 156 151 144 136 142 157 181 153 162 210 176 214 224 217 235 232 203 205 204 203 196 188 182 178 177 176 174 176 178 178 177 176 181 178
197 228 243 246 217 221 225 218 191 202 222 221 227 215 195 193 184 185 180 174 162 156 175 148 175 189 109 183 227 191 216 204 214 230 244 231 222 218 209 201 195 189 184 182 179 180 179 180 184 189 188 185 186 185
201 202 195 218 225 216 231 200 206 216 226 227 222 224 207 213 184 183 186 176 165 200 164 185 135 193 201 200 219 220 225 225 228 243 224 213 219 219 211 208 199 193 188 186 186 185 186 191 195 196 193 194 193 193
196 198 183 221 249 199 211 220 211 256 225 224 224 238 215 226 228 227 199 191 188 184 159 163 184 209 220 207 216 208 214 215 224 228 224 216 217 212 220 210 203 195 191 190 191 194 197 202 205 203 203 202 199 199
196 184 163 137 10 149 248 249 247 258 282 299 263 242 223 231 238 226 206 189 187 177 192 208 217 209 203 210 221 231 250 242 229 224 224 217 213 229 225 212 204 198 194 194 196 197 200 203 205 208 211 210 206 204
199 201 192 186 210 282 291 311 306 348 328 323 320 281 267 237 209 192 191 190 195 216 228 227 241 247 254 265 260 261 263 255 263 267 260 243 232 229 220 207 208 201 196 195 197 202 209 215 218 215 213 215 212 210
202 193 200 184 186 197 257 243 275 317 319 306 311 285 296 287 248 217 190 187 218 216 227 241 247 254 259 258 261 258 259 262 255 247 245 242 224 215 217 213 204 201 199 200 204 214 217 217 213 214 215 216 216 217
207 203 195 185 172 197 230 219 236 222 106 314 341 319 270 286 271 219 237 224 226 230 236 241 244 250 256 262 260 257 256 253 251 248 242 236 230 229 226 219 206 202 199 199 209 217 219 218 215 215 216 218 217 219
204 186 184 184 184 197 186 173 179 191 216 26 71 278 284 265 265 238 261 275 254 248 242 243 247 251 252 252 250 251 251 250 248 245 241 231 225 226 228 219 205 204 202 212 207 212 211 215 216 215 219 222 220 221
204 186 182 181 181 122 129 141 184 96 206 208 170 263 245 239 287 256 227 260 269 268 261 256 251 252 254 256 260 259 258 252 248 245 239 231 227 224 216 205 205 203 197 199 205 205 217 220 215 216 222 225 222 221
213 203 194 174 170 141 172 161 188 200 179 191 220 219 158 253 188 237 225 256 265 269 272 267 260 257 255 255 252 255 259 254 244 241 242 235 230 224 216 199 194 194 199 197 201 211 222 219 218 220 223 224 222 223
201 179 134 156 160 156 115 143 176 136 179 201 214 157 175 235 251 248 255 253 263 260 264 269 265 256 257 260 258 259 261 262 255 252 250 239 227 225 225 205 191 196 190 197 201 215 221 218 220 222 223 224 225 225
163 156 147 175 172 195 167 175 169 195 222 198 122 182 201 206 240 261 268 275 284 287 287 285 277 273 266 264 257 259 258 250 240 236 234 225 218 214 198 195 198 190 190 183 199 219 218 220 222 221 221 225 226 227
158 182 189 145 127 187 204 197 208 212 220 187 210 243 248 251 260 270 284 290 292 290 295 293 284 273 273 265 253 245 238 238 223 206 200 192 182 179 183 188 182 182 180 184 198 207 215 218 215 215 219 221 224 229
180 176 154 147 164 213 226 208 223 231 235 237 241 256 257 260 266 271 273 278 282 285 284 279 274 258 256 257 251 232 222 215 213 220 202 196 187 181 178 177 181 183 184 189 208 217 218 215 215 218 220 223 228 234
159 164 113 162 213 226 226 232 234 234 236 244 242 244 256 276 282 283 277 279 282 285 283 279 269 259 250 241 236 229 216 207 205 206 211 203 185 179 179 183 187 188 187 205 219 215 211 210 213 215 220 227 235 242
158 167 142 178 253 221 219 204 218 205 214 217 236 226 252 250 262 263 260 271 270 262 259 258 257 256 250 243 236 223 219 199 190 191 188 180 175 176 178 180 181 191 205 209 207 206 208 210 214 219 225 232 238 244
111 124 127 137 146 195 185 166 198 258 232 238 246 230 225 221 251 259 271 272 257 241 233 223 221 224 220 212 208 191 178 166 154 148 147 152 154 164 174 181 192 197 197 197 199 204 210 215 219 224 229 235 244 253
Wind_Speed_850mb
102 96 95 92 88 86 82 79 77 76 72 69 66 62 59 58 55 55 55 50 51 26 46 48 40 35 23 18 9 18 10 7 6 4 7 6 7 9 3 9 13 15 15 10 5 8 21 29 16 13 6 9 11 10
104 102 100 101 99 94 92 90 86 84 81 79 76 74 71 68 65 62 67 67 63 50 27 30 48 59 58 49 28 33 12 17 27 6 3 6 7 4 6 7 5 8 16 12 25 18 2 36 25 24 26 21 14 13
106 107 106 103 101 100 96 97 95 95 91 87 88 84 81 79 76 78 79 81 68 53 53 68 69 68 65 64 58 29 26 33 23 22 21 5 9 8 9 14 3 11 23 9 4 38 54 61 67 62 50 32 16 13
113 108 105 110 109 106 103 101 98 99 97 98 97 94 90 89 87 89 98 97 83 21 15 30 51 55 66 71 74 69 59 27 22 22 13 6 6 30 6 2 7 11 23 10 19 57 62 63 43 39 31 27 20 17
112 113 115 109 111 107 106 103 99 97 101 102 103 100 97 97 95 98 102 104 99 73 10 12 31 49 54 55 60 65 62 48 28 13 12 7 8 3 3 0 15 31 19 13 22 32 33 21 15 17 26 27 22 16
116 116 112 115 113 121 111 110 105 104 104 104 107 102 105 100 104 98 63 94 96 95 23 4 18 28 49 48 48 50 55 45 33 17 10 14 16 14 6 8 39 59 67 80 54 47 36 24 13 16 24 28 23 14
93 102 109 116 115 119 120 115 115 104 108 106 105 97 105 111 112 85 34 28 51 92 18 8 9 12 25 31 27 28 35 25 28 13 16 12 15 23 5 11 88 38 43 40 47 44 30 26 17 23 24 27 21 13
78 85 89 94 99 104 111 116 118 114 111 105 106 103 110 107 96 86 67 46 48 66 20 6 5 12 32 18 16 25 21 25 22 12 9 12 11 18 12 73 70 56 56 45 36 43 45 28 25 34 31 27 20 10
42 44 52 56 64 74 81 89 94 99 104 96 81 80 65 60 39 46 50 39 70 29 19 16 13 9 35 13 14 18 19 7 13 11 11 18 8 16 31 46 56 60 36 22 22 20 19 23 38 41 37 29 18 9
37 43 46 42 42 44 56 73 80 77 66 52 55 26 20 18 25 45 33 40 31 21 15 10 16 6 26 16 14 19 14 5 7 9 13 8 10 43 93 94 86 52 43 37 32 29 35 43 49 46 36 26 17 8
38 41 39 37 35 37 37 29 34 53 57 71 26 13 39 66 24 10 16 14 18 9 19 18 22 13 26 8 7 16 7 7 6 6 8 6 8 20 50 56 60 64 58 50 42 24 27 30 53 50 41 26 16 10
28 26 25 30 41 40 32 22 34 47 44 42 33 61 59 13 6 8 9 8 11 11 20 21 17 13 21 14 10 14 6 2 10 13 1 9 13 39 24 17 16 26 36 47 48 29 37 43 46 41 34 24 16 11
16 17 23 26 24 24 31 56 47 50 48 37 13 20 17 12 8 17 20 9 8 26 37 29 11 21 15 12 10 6 9 10 18 2 9 12 19 13 17 22 21 23 31 43 42 40 44 52 47 36 30 22 17 14
16 17 15 16 24 25 30 81 74 66 44 17 21 14 14 11 13 12 9 11 15 23 58 50 20 14 12 9 9 10 4 7 4 6 16 8 27 24 35 23 29 37 44 49 50 53 55 52 44 35 26 21 16 17
20 21 22 16 20 34 29 29 64 67 16 12 14 12 18 15 9 15 22 25 21 58 71 31 16 12 5 7 4 9 6 12 14 12 8 16 12 23 36 38 41 48 55 57 58 59 56 47 39 33 27 23 19 20
26 28 27 15 18 33 49 31 74 62 18 11 16 9 5 14 8 21 33 25 48 64 43 13 7 9 9 8 10 21 15 19 10 8 34 24 19 23 33 39 43 51 58 62 61 58 52 45 37 30 25 23 20 19
28 27 15 20 17 23 25 29 42 21 17 14 14 40 38 9 20 31 39 46 68 58 8 10 16 14 8 7 10 11 13 8 22 33 27 23 24 22 30 40 48 57 64 65 63 58 50 44 38 32 29 24 23 22
25 14 13 14 23 28 19 15 16 17 16 25 9 20 45 19 25 42 49 67 53 27 27 12 19 9 13 14 9 9 42 37 27 19 23 23 18 22 28 40 51 60 67 67 63 58 52 46 40 33 30 26 26 24
19 14 10 4 5 13 8 11 17 9 21 11 42 28 36 38 46 39 52 78 61 56 30 26 9 10 11 11 16 21 30 27 30 30 28 27 29 24 29 43 51 64 71 71 67 60 50 40 34 34 32 28 28 27
27 17 9 8 4 5 5 8 8 9 6 8 10 16 23 16 31 38 52 79 64 26 10 9 14 19 21 36 34 27 13 14 24 25 33 34 33 33 39 48 58 68 74 70 64 55 50 46 45 42 37 31 31 30
32 29 16 11 4 2 5 9 8 8 15 12 17 11 12 14 18 36 42 64 33 14 8 51 59 52 43 39 38 36 31 31 39 45 48 44 53 49 45 55 65 74 80 75 66 58 56 51 43 42 40 34 33 33
41 34 25 14 8 6 9 10 10 20 12 16 15 7 10 7 7 13 28 28 16 33 37 62 60 54 68 74 72 69 59 50 53 59 62 57 54 56 54 61 71 83 81 73 58 59 54 46 45 43 42 36 37 37
41 42 28 19 13 18 9 12 6 4 0 8 15 11 5 6 8 7 11 14 21 55 76 84 79 70 76 80 71 65 59 61 68 69 64 63 54 49 50 62 75 86 82 69 56 54 47 41 46 46 44 40 41 41
44 25 18 28 27 13 15 13 13 9 3 3 4 8 10 10 5 6 6 10 27 43 66 88 91 92 92 88 75 75 72 73 76 69 68 65 64 58 57 56 74 83 75 57 55 55 46 46 48 48 46 41 44 43
15 20 18 11 19 9 7 4 3 6 10 9 7 10 7 5 3 6 8 14 43 53 65 81 86 85 93 94 87 91 90 82 78 79 70 69 66 62 59 61 76 79 67 55 55 45 44 49 50 49 46 44 45 44
20 28 24 22 12 11 11 11 12 16 10 9 14 7 1 1 8 13 8 43 63 71 75 68 76 82 95 103 90 79 85 79 76 74 78 80 81 80 70 76 85 82 67 56 49 44 46 48 48 48 46 45 46 45
16 10 7 17 19 18 7 4 8 7 12 15 8 9 9 10 11 10 63 68 65 64 57 55 57 64 81 76 70 68 70 58 53 65 74 73 76 72 72 83 93 74 65 58 44 35 40 41 44 45 43 43 44 44
10 24 14 27 16 21 13 6 12 16 10 13 11 10 16 17 18 35 43 45 53 55 53 56 58 55 63 67 64 48 41 40 46 55 55 51 63 61 60 68 60 60 49 36 30 34 36 37 37 38 38 39 41 42
10 23 40 9 7 10 18 18 13 23 21 21 8 12 12 29 40 50 57 58 60 61 60 54 43 42 45 41 39 42 47 52 59 62 61 66 65 64 63 59 56 49 42 35 31 32 34 35 36 36 36 38 40 39
14 41 15 10 15 15 24 28 16 35 41 39 22 19 25 44 54 53 59 58 56 57 53 48 37 32 37 39 40 43 47 53 55 62 74 77 80 74 70 63 55 48 43 33 29 31 35 37 35 34 35 35 34 32
32 26 10 12 9 11 18 29 33 27 23 22 33 33 37 29 48 58 55 55 53 50 43 36 29 29 32 34 38 39 40 47 48 49 52 58 69 67 63 57 47 39 31 29 29 29 30 31 31 31 30 29 29 28
22 18 11 8 8 10 13 16 11 15 13 14 14 19 12 11 14 17 26 28 28 31 29 23 21 24 27 26 27 31 30 39 42 40 37 43 55 52 46 38 30 25 30 31 29 29 28 27 27 26 26 25 25 25
11 10 7 8 6 9 17 14 8 6 10 9 13 17 21 13 11 12 14 17 18 19 18 17 16 17 18 18 21 24 32 42 42 38 37 41 37 34 30 27 30 32 29 28 26 25 24 23 22 22 22 21 22 23
Wind_Direction_850mb
240 243 244 242 245 246 246 247 249 250 251 250 249 249 250 252 249 253 254 250 241 230 249 248 238 227 203 193 164 167 127 201 122 153 175 206 209 216 193 198 182 180 163 198 128 218 274 181 137 191 201 211 211 204
242 242 243 243 244 247 247 248 248 248 248 249 250 250 249 250 249 249 248 252 246 229 258 254 245 244 242 249 241 192 218 183 188 118 213 114 218 159 197 250 305 263 198 181 189 221 172 202 233 248 271 262 245 227
240 241 243 244 244 245 250 248 251 250 249 247 249 249 248 250 248 246 247 248 235 233 249 252 253 250 241 239 239 224 233 225 210 207 171 171 223 131 191 225 212 247 202 232 121 252 248 266 265 263 267 263 246 223
242 242 244 244 242 245 248 251 251 248 249 249 245 246 249 248 248 247 244 243 241 224 224 236 243 239 243 236 236 231 238 225 228 215 209 185 197 198 227 177 222 210 155 193 259 280 274 266 266 266 255 244 218 187
242 240 244 245 245 243 245 250 250 247 248 254 246 248 247 248 248 248 247 242 242 232 228 215 229 234 234 232 232 231 231 236 227 198 199 229 235 235 156 135 246 201 210 195 250 262 243 259 255 252 232 215 204 191
241 242 241 243 244 243 245 247 249 249 252 247 259 248 254 245 243 243 234 241 235 237 245 235 231 213 218 221 217 220 225 220 215 208 210 234 210 189 229 243 252 247 242 235 247 261 265 271 256 219 203 188 180 168
245 249 251 246 245 244 243 246 248 249 250 257 256 256 249 247 241 220 225 229 220 218 217 251 216 171 188 196 192 197 206 204 209 221 219 233 196 198 229 252 262 257 253 251 256 263 257 250 245 195 190 173 160 143
246 246 248 250 252 255 254 251 249 250 252 254 252 253 253 235 221 216 223 217 195 180 194 247 131 170 175 170 160 181 183 188 204 219 219 215 192 209 242 242 263 266 263 261 260 252 258 267 204 178 175 169 154 138
236 242 245 249 254 258 263 260 258 255 250 248 247 245 203 189 203 204 207 193 176 181 193 196 172 199 167 153 148 156 178 169 192 224 226 181 195 221 230 254 251 253 246 226 216 222 216 203 183 174 169 163 158 151
229 231 233 233 235 242 252 260 263 250 229 203 189 160 162 182 172 171 145 167 188 213 231 221 143 150 159 163 170 143 179 200 203 227 173 222 258 262 255 253 258 250 237 229 182 171 184 181 180 174 166 159 159 168
232 236 239 239 236 232 237 234 228 227 201 171 157 115 141 145 140 140 138 171 191 242 205 177 174 140 181 150 163 201 168 165 212 215 187 249 265 243 256 253 251 243 242 244 232 222 208 209 180 168 165 167 168 161
228 223 221 229 234 236 236 241 230 198 182 181 161 128 140 177 141 134 188 170 195 216 176 154 161 142 147 154 120 175 156 122 247 133 206 263 244 248 237 226 224 224 215 205 206 205 181 176 172 164 162 166 166 157
243 234 227 226 218 213 197 194 207 209 187 156 120 142 156 161 188 191 191 202 193 172 175 164 136 148 140 155 114 153 158 210 129 128 238 243 260 243 217 220 215 191 180 184 181 173 167 163 164 167 164 165 158 161
244 264 255 222 215 195 165 190 200 196 179 180 156 158 201 182 229 197 187 173 177 167 150 144 120 136 139 145 149 158 120 133 200 241 236 243 257 251 222 209 196 183 178 177 174 167 168 168 165 165 165 162 161 166
211 210 211 239 205 192 164 199 202 188 183 176 176 205 205 208 200 185 167 141 139 153 146 128 102 125 145 126 173 108 137 234 215 231 230 263 250 217 201 201 192 185 177 178 174 170 170 171 172 172 169 168 173 170
232 251 244 201 202 200 203 194 195 207 217 221 221 201 164 167 177 175 173 150 156 151 144 136 142 157 181 153 162 210 176 214 224 217 235 232 203 205 204 203 196 188 182 178 177 176 174 176 178 178 177 176 181 178
197 228 243 246 217 221 225 218 191 202 222 221 227 215 195 193 184 185 180 174 162 156 175 148 175 189 109 183 227 191 216 204 214 230 244 231 222 218 209 201 195 189 184 182 179 180 179 180 184 189 188 185 186 185
201 202 195 218 225 216 231 200 206 216 226 227 222 224 207 213 184 183 186 176 165 200 164 185 135 193 201 200 219 220 225 225 228 243 224 213 219 219 211 208 199 193 188 186 186 185 186 191 195 196 193 194 193 193
196 198 183 221 249 199 211 220 211 256 225 224 224 238 215 226 228 227 199 191 188 184 159 163 184 209 220 207 216 208 214 215 224 228 224 216 217 212 220 210 203 195 191 190 191 194 197 202 205 203 203 202 199 199
196 184 163 137 10 149 248 249 247 258 282 299 263 242 223 231 238 226 206 189 187 177 192 208 217 209 203 210 221 231 250 242 229 224 224 217 213 229 225 212 204 198 194 194 196 197 200 203 205 208 211 210 206 204
199 201 192 186 210 282 291 311 306 348 328 323 320 281 267 237 209 192 191 190 195 216 228 227 241 247 254 265 260 261 263 255 263 267 260 243 232 229 220 207 208 201 196 195 197 202 209 215 218 215 213 215 212 210
202 193 200 184 186 197 257 243 275 317 319 306 311 285 296 287 248 217 190 187 218 216 227 241 247 254 259 258 261 258 259 262 255 247 245 242 224 215 217 213 204 201 199 200 204 214 217 217 213 214 215 216 216 217
207 203 195 185 172 197 230 219 236 222 106 314 341 319 270 286 271 219 237 224 226 230 236 241 244 250 256 262 260 257 256 253 251 248 242 236 230 229 226 219 206 202 199 199 209 217 219 218 215 215 216 218 217 219
204 186 184 184 184 197 186 173 179 191 216 26 71 278 284 265 265 238 261 275 254 248 242 243 247 251 252 252 250 251 251 250 248 245 241 231 225 226 228 219 205 204 202 212 207 212 211 215 216 215 219 222 220 221
204 186 182 181 181 122 129 141 184 96 206 208 170 263 245 239 287 256 227 260 269 268 261 256 251 252 254 256 260 259 258 252 248 245 239 231 227 224 216 205 205 203 197 199 205 205 217 220 215 216 222 225 222 221
213 203 194 174 170 141 172 161 188 200 179 191 220 219 158 253 188 237 225 256 265 269 272 267 260 257 255 255 252 255 259 254 244 241 242 235 230 224 216 199 194 194 199 197 201 211 222 219 218 220 223 224 222 223
201 179 134 156 160 156 115 143 176 136 179 201 214 157 175 235 251 248 255 253 263 260 264 269 265 256 257 260 258 259 261 262 255 252 250 239 227 225 225 205 191 196 190 197 201 215 221 218 220 222 223 224 225 225
163 156 147 175 172 195 167 175 169 195 222 198 122 182 201 206 240 261 268 275 284 287 287 285 277 273 266 264 257 259 258 250 240 236 234 225 218 214 198 195 198 190 190 183 199 219 218 220 222 221 221 225 226 227
158 182 189 145 127 187 204 197 208 212 220 187 210 243 248 251 260 270 284 290 292 290 295 293 284 273 273 265 253 245 238 238 223 206 200 192 182 179 183 188 182 182 180 184 198 207 215 218 215 215 219 221 224 229
180 176 154 147 164 213 226 208 223 231 235 237 241 256 257 260 266 271 273 278 282 285 284 279 274 258 256 257 251 232 222 215 213 220 202 196 187 181 178 177 181 183 184 189 208 217 218 215 215 218 220 223 228 234
159 164 113 162 213 226 226 232 234 234 236 244 242 244 256 276 282 283 277 279 282 285 283 279 269 259 250 241 236 229 216 207 205 206 211 203 185 179 179 183 187 188 187 205 219 215 211 210 213 215 220 227 235 242
158 167 142 178 253 221 219 204 218 205 214 217 236 226 252 250 262 263 260 271 270 262 259 258 257 256 250 243 236 223 219 199 190 191 188 180 175 176 178 180 181 191 205 209 207 206 208 210 214 219 225 232 238 244
111 124 127 137 146 195 185 166 198 258 232 238 246 230 225 221 251 259 271 272 257 241 233 223 221 224 220 212 208 191 178 166 154 148 147 152 154 164 174 181 192 197 197 197 199 204 210 215 219 224 229 235 244 253